Time,TemperatureF,DewpointF,PressureIn,WindDirection,WindDirectionDegrees,WindSpeedMPH,WindSpeedGustMPH,Humidity,HourlyPrecipIn,Conditions,Clouds,dailyrainin,SoftwareType,DateUTC
2013-08-11 00:01:00,70.5,54.5,30.24,NNE,23,0.0,0.0,57,0.00,,,0.00,WUHU216HW,2013-08-11 04:01:00,
2013-08-11 00:06:00,70.3,54.3,30.24,NNE,23,0.0,0.0,57,0.00,,,0.00,WUHU216HW,2013-08-11 04:06:00,
2013-08-11 00:11:00,70.1,54.2,30.24,NNE,23,0.0,0.0,57,0.00,,,0.00,WUHU216HW,2013-08-11 04:11:00,
2013-08-11 00:16:00,69.9,54.0,30.24,NNE,23,0.0,0.0,57,0.00,,,0.00,WUHU216HW,2013-08-11 04:16:00,
2013-08-11 00:21:00,69.4,54.0,30.23,NNE,23,0.0,0.0,58,0.00,,,0.00,WUHU216HW,2013-08-11 04:21:00,
2013-08-11 00:26:00,68.9,53.9,30.23,NNE,23,0.0,0.0,59,0.00,,,0.00,WUHU216HW,2013-08-11 04:26:00,
2013-08-11 00:31:00,68.7,54.3,30.23,NNE,23,0.0,0.0,60,0.00,,,0.00,WUHU216HW,2013-08-11 04:31:00,
2013-08-11 00:36:00,68.3,54.3,30.23,NNE,23,0.0,0.0,61,0.00,,,0.00,WUHU216HW,2013-08-11 04:36:00,
2013-08-11 00:41:00,68.0,54.4,30.23,NNE,23,0.0,0.0,62,0.00,,,0.00,WUHU216HW,2013-08-11 04:41:00,
2013-08-11 00:46:00,67.8,54.2,30.23,NNE,23,0.0,0.0,62,0.00,,,0.00,WUHU216HW,2013-08-11 04:46:00,
2013-08-11 00:51:00,68.0,54.4,30.23,NNE,23,0.0,0.0,62,0.00,,,0.00,WUHU216HW,2013-08-11 04:51:00,
2013-08-11 00:56:00,68.1,55.0,30.23,NNE,23,0.0,0.0,63,0.00,,,0.00,WUHU216HW,2013-08-11 04:56:00,
2013-08-11 01:01:00,68.3,55.2,30.23,NNE,23,0.0,0.0,63,0.00,,,0.00,WUHU216HW,2013-08-11 05:01:00,
2013-08-11 01:06:00,68.3,55.2,30.23,NNE,23,0.0,0.0,63,0.00,,,0.00,WUHU216HW,2013-08-11 05:06:00,
2013-08-11 01:11:00,68.3,55.2,30.23,NNE,23,0.0,0.0,63,0.00,,,0.00,WUHU216HW,2013-08-11 05:11:00,
2013-08-11 01:17:00,68.1,55.0,30.23,NNE,23,0.0,0.0,63,0.00,,,0.00,WUHU216HW,2013-08-11 05:17:00,
2013-08-11 01:22:00,68.1,55.4,30.23,NNE,23,0.0,0.0,64,0.00,,,0.00,WUHU216HW,2013-08-11 05:22:00,
2013-08-11 01:27:00,67.8,55.1,30.23,NNE,23,0.0,0.0,64,0.00,,,0.00,WUHU216HW,2013-08-11 05:27:00,
2013-08-11 01:32:00,67.8,55.1,30.23,NNE,23,0.0,0.0,64,0.00,,,0.00,WUHU216HW,2013-08-11 05:32:00,
2013-08-11 01:37:00,67.8,55.1,30.23,NNE,23,0.0,0.0,64,0.00,,,0.00,WUHU216HW,2013-08-11 05:37:00,
2013-08-11 01:42:00,67.6,54.9,30.23,NNE,23,0.0,0.0,64,0.00,,,0.00,WUHU216HW,2013-08-11 05:42:00,
2013-08-11 01:47:00,67.4,54.8,30.22,NNE,23,0.0,0.0,64,0.00,,,0.00,WUHU216HW,2013-08-11 05:47:00,
2013-08-11 01:52:00,67.4,55.2,30.22,NNE,23,0.0,0.0,65,0.00,,,0.00,WUHU216HW,2013-08-11 05:52:00,
2013-08-11 01:57:00,67.2,55.0,30.22,NNE,23,0.0,0.0,65,0.00,,,0.00,WUHU216HW,2013-08-11 05:57:00,
2013-08-11 02:02:00,66.9,54.7,30.22,NNE,23,0.0,0.0,65,0.00,,,0.00,WUHU216HW,2013-08-11 06:02:00,
2013-08-11 02:07:00,66.9,54.7,30.21,NNE,23,0.0,0.0,65,0.00,,,0.00,WUHU216HW,2013-08-11 06:07:00,
2013-08-11 02:12:00,66.7,54.9,30.22,NNE,23,0.0,0.0,66,0.00,,,0.00,WUHU216HW,2013-08-11 06:12:00,
2013-08-11 02:18:00,66.7,54.9,30.22,NNE,23,0.0,0.0,66,0.00,,,0.00,WUHU216HW,2013-08-11 06:18:00,
2013-08-11 02:23:00,66.3,54.6,30.23,WNW,293,0.0,0.0,66,0.00,,,0.00,WUHU216HW,2013-08-11 06:23:00,
2013-08-11 02:29:00,66.0,54.2,30.23,WNW,293,0.0,0.0,66,0.00,,,0.00,WUHU216HW,2013-08-11 06:29:00,
2013-08-11 02:34:00,65.4,54.5,30.23,WNW,293,0.0,0.0,67,0.00,,,0.00,WUHU216HW,2013-08-11 06:34:00,
2013-08-11 02:39:00,65.3,54.0,30.23,WNW,293,0.0,0.0,67,0.00,,,0.00,WUHU216HW,2013-08-11 06:39:00,
2013-08-11 02:44:00,65.1,53.8,30.23,WNW,293,0.0,0.0,67,0.00,,,0.00,WUHU216HW,2013-08-11 06:44:00,
2013-08-11 02:49:00,64.9,54.1,30.23,WNW,293,0.0,0.0,68,0.00,,,0.00,WUHU216HW,2013-08-11 06:49:00,
2013-08-11 02:54:00,64.7,53.9,30.23,WNW,293,0.0,0.0,68,0.00,,,0.00,WUHU216HW,2013-08-11 06:54:00,
2013-08-11 02:59:00,64.5,54.2,30.23,WNW,293,0.0,0.0,69,0.00,,,0.00,WUHU216HW,2013-08-11 06:59:00,
2013-08-11 03:04:00,64.4,54.0,30.22,WNW,293,0.0,0.0,69,0.00,,,0.00,WUHU216HW,2013-08-11 07:04:00,
2013-08-11 03:09:00,64.5,54.2,30.23,WNW,293,0.0,0.0,69,0.00,,,0.00,WUHU216HW,2013-08-11 07:09:00,
2013-08-11 03:15:00,64.5,54.2,30.22,WNW,293,0.0,0.0,69,0.00,,,0.00,WUHU216HW,2013-08-11 07:15:00,
2013-08-11 03:20:00,64.4,54.0,30.22,WNW,293,0.0,0.0,69,0.00,,,0.00,WUHU216HW,2013-08-11 07:20:00,
2013-08-11 03:25:00,64.0,53.7,30.23,WNW,293,0.0,0.0,69,0.00,,,0.00,WUHU216HW,2013-08-11 07:25:00,
2013-08-11 03:30:00,63.8,53.9,30.23,WNW,293,0.0,0.0,70,0.00,,,0.00,WUHU216HW,2013-08-11 07:30:00,
2013-08-11 03:35:00,63.5,53.9,30.23,WNW,293,0.0,0.0,71,0.00,,,0.00,WUHU216HW,2013-08-11 07:35:00,
2013-08-11 03:40:00,63.1,53.6,30.23,WNW,293,0.0,0.0,71,0.00,,,0.00,WUHU216HW,2013-08-11 07:40:00,
2013-08-11 03:45:00,62.7,53.2,30.23,WNW,293,0.0,0.0,71,0.00,,,0.00,WUHU216HW,2013-08-11 07:45:00,
2013-08-11 03:50:00,62.7,53.6,30.23,WNW,293,0.0,0.0,72,0.00,,,0.00,WUHU216HW,2013-08-11 07:50:00,
2013-08-11 03:55:00,62.9,53.7,30.22,WNW,293,0.0,0.0,72,0.00,,,0.00,WUHU216HW,2013-08-11 07:55:00,
2013-08-11 04:00:00,62.7,53.6,30.22,WNW,293,0.0,0.0,72,0.00,,,0.00,WUHU216HW,2013-08-11 08:00:00,
2013-08-11 04:05:00,62.7,53.6,30.22,WNW,293,0.0,0.0,72,0.00,,,0.00,WUHU216HW,2013-08-11 08:05:00,
2013-08-11 04:10:00,62.7,53.9,30.22,WNW,293,0.0,0.0,73,0.00,,,0.00,WUHU216HW,2013-08-11 08:10:00,
2013-08-11 04:16:00,62.9,54.1,30.23,WNW,293,0.0,0.0,73,0.00,,,0.00,WUHU216HW,2013-08-11 08:16:00,
2013-08-11 04:21:00,62.6,54.1,30.23,WNW,293,0.0,0.0,74,0.00,,,0.00,WUHU216HW,2013-08-11 08:21:00,
2013-08-11 04:26:00,62.6,53.7,30.22,WNW,293,0.0,0.0,73,0.00,,,0.00,WUHU216HW,2013-08-11 08:26:00,
2013-08-11 04:31:00,62.7,54.3,30.22,WNW,293,0.0,0.0,74,0.00,,,0.00,WUHU216HW,2013-08-11 08:31:00,
2013-08-11 04:36:00,62.7,54.3,30.23,WNW,293,0.0,0.0,74,0.00,,,0.00,WUHU216HW,2013-08-11 08:36:00,
2013-08-11 04:41:00,62.7,54.3,30.22,WNW,293,0.0,0.0,74,0.00,,,0.00,WUHU216HW,2013-08-11 08:41:00,
2013-08-11 04:46:00,62.7,54.3,30.22,WNW,293,0.0,0.0,74,0.00,,,0.00,WUHU216HW,2013-08-11 08:46:00,
2013-08-11 04:51:00,62.7,54.3,30.22,WNW,293,0.0,0.0,74,0.00,,,0.00,WUHU216HW,2013-08-11 08:51:00,
2013-08-11 04:57:00,62.4,53.9,30.22,WNW,293,0.0,0.0,74,0.00,,,0.00,WUHU216HW,2013-08-11 08:57:00,
2013-08-11 05:02:00,62.4,53.9,30.23,WNW,293,0.0,0.0,74,0.00,,,0.00,WUHU216HW,2013-08-11 09:02:00,
2013-08-11 05:07:00,62.2,54.1,30.23,WNW,293,0.0,0.0,75,0.00,,,0.00,WUHU216HW,2013-08-11 09:07:00,
2013-08-11 05:12:00,62.2,54.1,30.23,WNW,293,0.0,0.0,75,0.00,,,0.00,WUHU216HW,2013-08-11 09:12:00,
2013-08-11 05:17:00,62.2,54.1,30.23,WNW,293,0.0,0.0,75,0.00,,,0.00,WUHU216HW,2013-08-11 09:17:00,
2013-08-11 05:22:00,62.2,53.8,30.23,WNW,293,0.0,0.0,74,0.00,,,0.00,WUHU216HW,2013-08-11 09:22:00,
2013-08-11 05:27:00,62.2,54.1,30.22,WNW,293,0.0,0.0,75,0.00,,,0.00,WUHU216HW,2013-08-11 09:27:00,
2013-08-11 05:32:00,62.4,54.3,30.22,WNW,293,0.0,0.0,75,0.00,,,0.00,WUHU216HW,2013-08-11 09:32:00,
2013-08-11 05:37:00,62.4,54.3,30.22,WNW,293,0.0,0.0,75,0.00,,,0.00,WUHU216HW,2013-08-11 09:37:00,
2013-08-11 05:43:00,62.2,54.1,30.22,WNW,293,0.0,0.0,75,0.00,,,0.00,WUHU216HW,2013-08-11 09:43:00,
2013-08-11 05:48:00,62.0,54.0,30.22,WNW,293,0.0,0.0,75,0.00,,,0.00,WUHU216HW,2013-08-11 09:48:00,
2013-08-11 05:53:00,61.7,53.6,30.22,WNW,293,0.0,0.0,75,0.00,,,0.00,WUHU216HW,2013-08-11 09:53:00,
2013-08-11 05:58:00,61.3,53.7,30.23,WNW,293,0.0,0.0,76,0.00,,,0.00,WUHU216HW,2013-08-11 09:58:00,
2013-08-11 06:03:00,60.9,53.4,30.23,WNW,293,0.0,0.0,76,0.00,,,0.00,WUHU216HW,2013-08-11 10:03:00,
2013-08-11 06:08:00,60.9,53.4,30.23,WNW,293,0.0,0.0,76,0.00,,,0.00,WUHU216HW,2013-08-11 10:08:00,
2013-08-11 06:13:00,60.6,53.0,30.22,WNW,293,0.0,0.0,76,0.00,,,0.00,WUHU216HW,2013-08-11 10:13:00,
2013-08-11 06:19:00,60.6,53.0,30.23,WNW,293,0.0,0.0,76,0.00,,,0.00,WUHU216HW,2013-08-11 10:19:00,
2013-08-11 06:24:00,60.6,53.4,30.23,WNW,293,0.0,0.0,77,0.00,,,0.00,WUHU216HW,2013-08-11 10:24:00,
2013-08-11 06:29:00,60.4,53.2,30.23,WNW,293,0.0,0.0,77,0.00,,,0.00,WUHU216HW,2013-08-11 10:29:00,
2013-08-11 06:32:00,60.0,52.8,30.23,WNW,293,0.0,0.0,77,0.00,,,0.00,WUHU216HW,2013-08-11 10:32:00,
2013-08-11 06:35:00,60.0,52.8,30.23,WNW,293,0.0,0.0,77,0.00,,,0.00,WUHU216HW,2013-08-11 10:35:00,
2013-08-11 06:40:00,60.0,52.8,30.23,WNW,293,0.0,0.0,77,0.00,,,0.00,WUHU216HW,2013-08-11 10:40:00,
2013-08-11 07:38:00,60.6,53.7,30.22,WNW,293,0.0,0.0,78,0.00,,,0.00,WUHU216HW,2013-08-11 11:38:00,
2013-08-11 07:43:00,60.6,53.7,30.22,WNW,293,0.0,0.0,78,0.00,,,0.00,WUHU216HW,2013-08-11 11:43:00,
2013-08-11 07:48:00,60.6,53.7,30.22,WNW,293,0.0,0.0,78,0.00,,,0.00,WUHU216HW,2013-08-11 11:48:00,
2013-08-11 07:53:00,60.6,53.7,30.22,WNW,293,0.0,0.0,78,0.00,,,0.00,WUHU216HW,2013-08-11 11:53:00,
2013-08-11 07:58:00,60.6,54.1,30.22,WNW,293,0.0,0.0,79,0.00,,,0.00,WUHU216HW,2013-08-11 11:58:00,
2013-08-11 08:03:00,60.9,54.4,30.22,WNW,293,0.0,0.0,79,0.00,,,0.00,WUHU216HW,2013-08-11 12:03:00,
2013-08-11 08:08:00,61.1,54.6,30.23,WNW,293,0.0,0.0,79,0.00,,,0.00,WUHU216HW,2013-08-11 12:08:00,
2013-08-11 08:13:00,61.1,54.6,30.23,WNW,293,0.0,0.0,79,0.00,,,0.00,WUHU216HW,2013-08-11 12:13:00,
2013-08-11 08:19:00,61.5,54.9,30.23,WNW,293,0.0,0.0,79,0.00,,,0.00,WUHU216HW,2013-08-11 12:19:00,
2013-08-11 08:24:00,61.5,54.9,30.23,WNW,293,0.0,0.0,79,0.00,,,0.00,WUHU216HW,2013-08-11 12:24:00,
2013-08-11 08:29:00,61.7,55.1,30.23,WNW,293,0.0,0.0,79,0.00,,,0.00,WUHU216HW,2013-08-11 12:29:00,
2013-08-11 08:34:00,62.2,55.6,30.23,WNW,293,0.0,0.0,79,0.00,,,0.00,WUHU216HW,2013-08-11 12:34:00,
2013-08-11 08:39:00,62.6,55.9,30.23,WNW,293,0.0,0.0,79,0.00,,,0.00,WUHU216HW,2013-08-11 12:39:00,
2013-08-11 08:44:00,63.1,56.4,30.23,WNW,293,0.0,0.0,79,0.00,,,0.00,WUHU216HW,2013-08-11 12:44:00,
2013-08-11 08:49:00,64.0,57.0,30.24,WNW,293,0.0,0.0,78,0.00,,,0.00,WUHU216HW,2013-08-11 12:49:00,
2013-08-11 08:54:00,64.2,57.2,30.24,WNW,293,0.0,0.0,78,0.00,,,0.00,WUHU216HW,2013-08-11 12:54:00,
2013-08-11 08:59:00,64.9,57.9,30.24,WNW,293,0.0,0.0,78,0.00,,,0.00,WUHU216HW,2013-08-11 12:59:00,
2013-08-11 09:04:00,65.3,57.8,30.24,WNW,293,0.0,0.0,77,0.00,,,0.00,WUHU216HW,2013-08-11 13:04:00,
2013-08-11 09:09:00,65.8,58.2,30.23,WNW,293,0.0,0.0,77,0.00,,,0.00,WUHU216HW,2013-08-11 13:09:00,
2013-08-11 09:14:00,66.3,58.5,30.23,NW,315,0.0,0.0,76,0.00,,,0.00,WUHU216HW,2013-08-11 13:14:00,
2013-08-11 09:19:00,66.7,58.5,30.23,NW,315,0.0,0.0,75,0.00,,,0.00,WUHU216HW,2013-08-11 13:19:00,
2013-08-11 09:24:00,67.2,59.0,30.23,NW,315,0.0,0.0,75,0.00,,,0.00,WUHU216HW,2013-08-11 13:24:00,
2013-08-11 09:30:00,67.6,59.4,30.23,NW,315,0.0,0.0,75,0.00,,,0.00,WUHU216HW,2013-08-11 13:30:00,
2013-08-11 09:35:00,68.3,59.5,30.23,NNE,23,0.0,0.0,74,0.00,,,0.00,WUHU216HW,2013-08-11 13:35:00,
2013-08-11 09:41:00,68.7,59.3,30.23,NNE,23,0.0,0.0,72,0.00,,,0.00,WUHU216HW,2013-08-11 13:41:00,
2013-08-11 09:46:00,69.2,59.4,30.23,NNE,23,0.0,0.0,71,0.00,,,0.00,WUHU216HW,2013-08-11 13:46:00,
2013-08-11 09:51:00,69.6,59.3,30.24,NNW,338,0.0,0.0,70,0.00,,,0.00,WUHU216HW,2013-08-11 13:51:00,
2013-08-11 09:56:00,69.9,58.8,30.24,NNW,338,0.0,0.0,68,0.00,,,0.00,WUHU216HW,2013-08-11 13:56:00,
2013-08-11 10:01:00,70.3,59.2,30.24,NNW,338,0.0,0.0,68,0.00,,,0.00,WUHU216HW,2013-08-11 14:01:00,
2013-08-11 10:06:00,70.8,58.9,30.24,West,270,0.0,0.0,66,0.00,,,0.00,WUHU216HW,2013-08-11 14:06:00,
2013-08-11 10:11:00,71.2,59.0,30.24,WNW,293,0.0,0.0,66,0.00,,,0.00,WUHU216HW,2013-08-11 14:11:00,
2013-08-11 10:12:00,71.4,59.2,30.24,NNE,23,0.6,0.6,66,0.00,,,0.00,WUHU216HW,2013-08-11 14:12:00,
2013-08-11 11:20:00,77.5,58.0,30.24,SW,225,0.0,0.0,51,0.00,,,0.00,WUHU216HW,2013-08-11 15:20:00,
2013-08-11 11:25:00,77.7,58.1,30.24,SW,225,3.1,3.1,51,0.00,,,0.00,WUHU216HW,2013-08-11 15:25:00,
2013-08-11 11:30:00,77.7,57.0,30.24,SSW,203,6.0,6.0,49,0.00,,,0.00,WUHU216HW,2013-08-11 15:30:00,
2013-08-11 11:35:00,77.9,58.3,30.24,NNW,338,0.0,6.0,51,0.00,,,0.00,WUHU216HW,2013-08-11 15:35:00,
2013-08-11 11:40:00,77.9,58.3,30.24,NNW,338,0.0,1.5,51,0.00,,,0.00,WUHU216HW,2013-08-11 15:40:00,